Hourly Data Report for October 02, 2017

All times are specified in Local Standard Time (LST). Add 1 hour to adjust for Daylight Saving Time where and when it is observed.

BACCARO PT
NOVA SCOTIA

43°27'03.000" N
65°28'18.000" W
4.60 m
8200255
71920
ACP

Download Data

Hourly Data (October 2017)
Hourly Data Report for October 2, 2017
Temp Definition
°C
Dew Point Temp Definition
°C
Rel Hum Definition
%
Wind Dir Definition
10's deg

Wind Spd Definition
km/h
Visibility Definition
km
Stn Press Definition
kPa
Hmdx Definition


Wind Chill Definition


Weather Definition


TIME
00:00 11.6 9.8 89 30 14   102.01     LegendNANA
01:00 10.6 9.8 95 32 11   102.01     LegendNANA
02:00 10.7 10.1 96 33 10   101.97     LegendNANA
03:00 10.0 9.6 98 33 13   101.94     LegendNANA
04:00 9.4 8.9 97 34 15   101.98     LegendNANA
05:00 8.9 7.7 93 34 13   102.04     LegendNANA
06:00 8.8 7.5 92 35 16   102.12     LegendNANA
07:00 9.5 7.8 89 36 19   102.19     LegendNANA
08:00 11.7 8.7 82 1 19   102.27     LegendNANA
09:00 14.9 9.9 72 1 20   102.35     LegendNANA
10:00 16.3 9.5 64 2 26   102.39     LegendNANA
11:00 17.6 8.4 55 1 24   102.41     LegendNANA
12:00 18.6 8.7 53 2 16   102.42     LegendNANA
13:00 19.3 8.2 49 36 11   102.41     LegendNANA
14:00 19.1 6.5 44 1 19   102.43     LegendNANA
15:00 18.7 5.8 43 1 21   102.49     LegendNANA
16:00 16.7 6.9 52 1 24   102.58     LegendNANA
17:00 14.4 4.8 53 1 25   102.73     LegendNANA
18:00 12.1 4.8 61 1 19   102.86     LegendNANA
19:00 10.5 5.2 70 1 19   102.97     LegendNANA
20:00 10.3 5.4 72 2 28   103.10     LegendNANA
21:00 9.6 5.4 75 2 25   103.20     LegendNANA
22:00 8.9 5.2 77 2 21   103.31     LegendNANA
23:00 9.1 5.1 76 3 27   103.32     LegendNANA

Notes on Data Quality.

Legend

  • E = Estimated
  • M = Missing
  • NA = Not Available
  • ‡ = Partner data that is not subject to review by the National Climate Archives
Date modified: